time_stamp(utc),avg(mph),gust(mph),direction(deg),12m_air_temp(f),sonic_u(cm/s),sonic_v(cm/s),sonic_w(cm/s),pressure,2m_air_temp(f),pyranometer(W/m^2)
"2021-12-07 00:01:02+00",22.1,26.1,,,-667,-715,29,1004.95,55.2,0
"2021-12-07 00:06:02+00",24.1,29.1,,,-730,-786,6,1004.91,55.1,0
"2021-12-07 00:11:02+00",22.2,24.2,,,-657,-745,2,1004.83,55.1,0
"2021-12-07 00:16:02+00",21.0,25.0,,55.9,-613,-735,23,1004.74,55.1,0
"2021-12-07 00:21:02+00",22.3,25.3,,,-625,-806,-5,1004.68,55.2,0
"2021-12-07 00:26:02+00",21.5,24.5,,56.2,-563,-811,5,1004.68,55.3,0
"2021-12-07 00:31:02+00",20.3,23.3,,,-571,-746,12,1004.64,55.3,0
"2021-12-07 00:36:02+00",24.2,29.2,,,-642,-939,-19,1004.63,55.3,0
"2021-12-07 00:41:02+00",22.6,25.6,,,-593,-857,-3,1004.63,55.3,0
"2021-12-07 00:46:02+00",21.8,26.8,,,-566,-835,5,1004.65,55.2,0
"2021-12-07 00:51:02+00",19.1,22.1,,55.7,-504,-748,33,1004.66,55,0
"2021-12-07 00:56:02+00",21.4,24.4,,,-536,-836,-7,1004.74,54.9,0
"2021-12-07 01:01:02+00",20.0,23.0,,,-528,-778,5,1004.7,54.9,0
"2021-12-07 01:06:02+00",19.4,22.4,,,-524,-735,3,1004.6,54.9,0
"2021-12-07 01:11:02+00",21.4,25.4,,,-576,-787,7,1004.62,54.9,0
"2021-12-07 01:16:02+00",20.3,22.3,,56,-525,-787,12,1004.5,55,0
"2021-12-07 01:21:02+00",20.2,24.2,,,-561,-748,22,1004.55,55.3,0
"2021-12-07 01:26:02+00",21.7,24.7,,,-613,-781,7,1004.52,55.5,0
"2021-12-07 01:31:02+00",22.1,26.1,,,-647,-760,19,1004.57,55.8,0
"2021-12-07 01:36:02+00",21.3,26.3,,,-633,-730,13,1004.6,56,0
"2021-12-07 01:41:02+00",21.6,25.6,,,-630,-760,11,1004.53,56.2,0
"2021-12-07 01:46:02+00",21.3,26.3,,57.7,-638,-756,14,1004.62,56.4,0
"2021-12-07 01:51:02+00",21.1,24.1,,,-635,-696,9,1004.83,56.4,0
"2021-12-07 01:56:02+00",20.2,24.2,,,-618,-658,16,1004.73,56.3,0
"2021-12-07 02:01:02+00",21.1,24.1,,,-671,-656,6,1004.87,56.2,0
"2021-12-07 02:06:02+00",29.6,33.6,,,-1360,198,55,1006.62,56.1,0
"2021-12-07 02:11:02+00",32.7,37.7,,55.5,-1401,491,54,1006.97,55,0
"2021-12-07 02:16:02+00",36.2,44.2,,,-1515,669,78,1006.99,54.3,0
"2021-12-07 02:21:02+00",25.7,28.7,,,-1060,487,57,1007.33,53.9,0
"2021-12-07 02:26:02+00",22.1,24.1,,,-924,411,45,1007.6,53.4,0
"2021-12-07 02:31:02+00",23.1,26.1,,,-970,425,45,1007.67,53,0
"2021-12-07 02:36:02+00",27.7,33.7,,,-1078,648,84,1007.75,53.2,0
"2021-12-07 02:41:02+00",35.8,39.8,,54.3,-1322,927,65,1007.83,53.3,0
"2021-12-07 02:46:02+00",29.8,38.8,,,-1162,760,77,1008.01,53.1,0
"2021-12-07 02:51:02+00",34.9,41.9,,53.5,-1262,989,84,1008.06,52.8,0
"2021-12-07 02:56:02+00",38.4,44.4,,,-1422,988,103,1008.26,52.7,0
"2021-12-07 03:01:02+00",34.4,39.4,,53.2,-1276,875,69,1008.42,52.4,0
"2021-12-07 03:06:02+00",34.0,39.0,,,-1304,819,45,1008.53,52,0
"2021-12-07 03:11:02+00",31.7,36.7,,,-1241,721,49,1008.7,51.8,0
"2021-12-07 03:16:02+00",31.5,38.5,,52.3,-1188,716,87,1008.9,51.7,0
"2021-12-07 03:21:02+00",27.3,31.3,,52,-1076,589,94,1009.01,51.4,0
"2021-12-07 03:26:02+00",31.1,36.1,,52,-1243,630,69,1009.2,51.2,0
"2021-12-07 03:31:02+00",28.4,33.4,,,-1141,585,54,1009.32,51.1,0
"2021-12-07 03:36:02+00",30.6,35.6,,,-1207,650,47,1009.33,51.1,0
"2021-12-07 03:41:02+00",31.3,34.3,,,-1244,726,83,1009.54,51,0
"2021-12-07 03:46:02+00",25.2,32.2,,,-1057,453,65,1009.9,50.7,0
"2021-12-07 03:51:02+00",26.6,33.6,,51.1,-1131,511,56,1010.21,50.5,0
"2021-12-07 03:56:02+00",22.8,25.8,,50.8,-875,525,47,1010.27,50.4,0
"2021-12-07 04:01:02+00",26.3,30.3,,,-920,764,76,1010.5,50.2,0
"2021-12-07 04:06:02+00",23.0,28.0,,,-739,731,70,1010.75,49.8,0
"2021-12-07 04:11:02+00",33.8,38.8,,49.3,-1046,1093,81,1010.71,49,0
"2021-12-07 04:16:02+00",28.7,34.7,,49.1,-959,832,94,1011.01,48.7,0
"2021-12-07 04:21:02+00",27.6,30.6,,48.8,-937,821,54,1011.28,48.4,0
"2021-12-07 04:26:02+00",27.6,35.6,,48.5,-986,742,89,1011.38,48.2,0
"2021-12-07 04:31:02+00",30.6,35.6,,,-1120,830,77,1011.51,47.8,0
"2021-12-07 04:36:02+00",33.1,39.1,,,-1164,874,87,1011.47,47.5,0
"2021-12-07 04:41:02+00",33.9,38.9,,47.5,-1190,1005,83,1011.63,47.1,0
"2021-12-07 04:46:02+00",29.0,37.0,,47.1,-1038,794,107,1011.93,46.8,0
"2021-12-07 04:51:02+00",37.1,42.1,,46.5,-1475,827,68,1011.93,46.2,0
"2021-12-07 04:56:02+00",29.8,33.8,,46.1,-1149,710,68,1012.05,45.9,0
"2021-12-07 05:01:02+00",28.3,31.3,,45.9,-1076,665,63,1012.41,45.5,0
"2021-12-07 05:06:02+00",30.9,33.9,,45.7,-1230,668,53,1012.56,45.3,0
"2021-12-07 05:11:02+00",24.2,28.2,,45.5,-929,591,61,1012.69,45.2,0
"2021-12-07 05:16:02+00",31.5,39.5,,45.3,-1223,711,76,1012.79,45,0
"2021-12-07 05:21:02+00",29.5,37.5,,45,-1056,827,72,1012.92,44.8,0
"2021-12-07 05:26:02+00",35.0,38.0,,44.6,-1261,934,73,1013.13,44.4,0
"2021-12-07 05:31:02+00",27.6,34.6,,44.4,-1045,658,69,1013.34,44.1,0
"2021-12-07 05:36:02+00",26.7,30.7,,,-1017,661,52,1013.53,43.7,0
"2021-12-07 05:41:02+00",21.9,25.9,,43.8,-745,627,71,1013.86,43.5,0
"2021-12-07 05:46:02+00",22.0,25.0,,43.2,-633,759,49,1014.14,43,0
"2021-12-07 05:51:02+00",20.0,24.0,,42.5,-583,680,52,1014.17,42.3,0
"2021-12-07 05:56:02+00",22.1,24.1,,42.1,-610,774,45,1014.43,41.8,0
"2021-12-07 06:01:02+00",19.8,22.8,,41.8,-490,745,48,1014.54,41.4,0
"2021-12-07 06:06:02+00",23.5,26.5,,41.6,-604,867,58,1014.81,41.2,0
"2021-12-07 06:11:02+00",21.7,25.7,,41.2,-615,728,41,1014.96,40.8,0
"2021-12-07 06:16:02+00",20.3,24.3,,41,-565,696,43,1015.03,40.5,0
"2021-12-07 06:21:02+00",21.4,25.4,,,-616,743,49,1015.11,40.4,0
"2021-12-07 06:26:02+00",18.6,22.6,,40.6,-494,666,36,1015.31,40.1,0
"2021-12-07 06:31:02+00",24.3,30.3,,40.5,-685,850,57,1015.38,39.9,0
"2021-12-07 06:36:02+00",22.1,26.1,,40.3,-607,783,50,1015.51,39.7,0
"2021-12-07 06:41:02+00",18.8,21.8,,40.1,-466,707,37,1015.59,39.4,0
"2021-12-07 06:46:02+00",17.0,19.0,,,-440,627,35,1015.66,39.2,0
"2021-12-07 06:51:02+00",16.3,19.3,,39.7,-439,591,46,1015.66,39,0
"2021-12-07 06:56:02+00",16.3,17.3,,39.5,-455,567,23,1015.8,38.8,0
"2021-12-07 07:01:02+00",14.3,17.3,,39.4,-428,483,33,1016.02,38.6,0
"2021-12-07 07:06:02+00",14.4,15.4,,39.5,-423,481,29,1016.27,38.5,0
"2021-12-07 07:11:02+00",11.8,14.8,,39.4,-397,350,52,1016.4,38.5,0
"2021-12-07 07:16:02+00",15.9,17.9,,,-592,410,44,1016.63,38.7,0
"2021-12-07 07:21:02+00",20.4,22.4,,39.6,-784,506,48,1016.86,38.8,0
"2021-12-07 07:26:02+00",23.3,25.3,,,-881,576,38,1017.17,38.8,0
"2021-12-07 07:31:02+00",17.9,21.9,,,-615,500,51,1017.23,38.8,0
"2021-12-07 07:36:02+00",15.6,18.6,,39.2,-569,410,74,1017.22,38.6,0
"2021-12-07 07:41:02+00",16.3,17.3,,39.1,-646,375,40,1017.32,38.4,0
"2021-12-07 07:46:02+00",16.3,18.3,,39,-588,443,40,1017.37,38.3,0
"2021-12-07 07:51:02+00",17.1,19.1,,38.9,-604,472,71,1017.41,38.2,0
"2021-12-07 07:56:02+00",19.8,22.8,,38.8,-676,587,24,1017.31,38.1,0
"2021-12-07 08:01:02+00",18.4,20.4,,,-672,479,35,1017.46,38,0
"2021-12-07 08:06:02+00",18.9,20.9,,38.7,-683,513,38,1017.37,37.9,0
"2021-12-07 08:11:02+00",19.7,20.7,,38.6,-658,594,32,1017.42,37.9,0
"2021-12-07 08:16:02+00",17.3,19.3,,38.5,-665,423,39,1017.34,37.8,0
"2021-12-07 08:21:02+00",18.4,21.4,,38.4,-663,489,43,1017.3,37.7,0
"2021-12-07 08:26:02+00",16.8,19.8,,38.3,-612,453,47,1017.35,37.5,0
"2021-12-07 08:31:02+00",14.4,16.4,,38.1,-559,394,50,1017.32,37.4,0
"2021-12-07 08:36:02+00",13.7,16.7,,38.1,-490,367,55,1017.43,37.3,0
"2021-12-07 08:41:02+00",17.4,20.4,,38.2,-627,482,46,1017.47,37.4,0
"2021-12-07 08:46:02+00",17.1,19.1,,37.9,-601,475,48,1017.45,37.2,0
"2021-12-07 08:51:02+00",18.0,20.0,,,-681,442,22,1017.41,37.1,0
"2021-12-07 08:56:02+00",19.9,21.9,,,-750,529,43,1017.44,37,0
"2021-12-07 09:01:02+00",18.3,21.3,,37.8,-698,437,48,1017.51,36.9,0
"2021-12-07 09:06:02+00",15.3,18.3,,37.8,-595,338,46,1017.77,36.9,0
"2021-12-07 09:11:02+00",15.3,18.3,,37.9,-640,290,34,1017.9,36.9,0
"2021-12-07 09:16:02+00",15.8,19.8,,,-700,238,45,1017.89,36.8,0
"2021-12-07 09:21:02+00",17.5,19.5,,,-705,351,35,1017.98,36.7,0
"2021-12-07 09:26:02+00",16.5,19.5,,37.8,-688,231,36,1017.92,36.7,0
"2021-12-07 09:31:02+00",14.9,17.9,,37.8,-658,156,51,1018.13,36.7,0
"2021-12-07 09:36:02+00",13.9,15.9,,37.7,-623,75,46,1018.29,36.6,0
"2021-12-07 09:41:02+00",13.9,15.9,,37.6,-592,88,49,1018.24,36.6,0
"2021-12-07 09:46:02+00",13.1,15.1,,37.5,-583,76,56,1018.34,36.5,0
"2021-12-07 09:51:02+00",13.8,15.8,,37.6,-614,101,49,1018.38,36.4,0
"2021-12-07 09:56:02+00",12.8,14.8,,,-573,141,38,1018.39,36.4,0
"2021-12-07 10:01:02+00",11.6,13.6,,37.3,-506,139,30,1018.29,36.2,0
"2021-12-07 10:06:02+00",11.7,13.7,,,-522,97,30,1018.26,36.2,0
"2021-12-07 10:11:02+00",11.9,14.9,,37.2,-545,31,27,1018.47,36.1,0
"2021-12-07 10:16:02+00",9.4,11.4,,37.1,-415,40,27,1018.63,36,0
"2021-12-07 10:21:02+00",11.4,14.4,,36.8,-504,30,17,1018.59,35.8,0
"2021-12-07 10:26:02+00",14.2,16.2,,,-634,83,30,1018.54,35.7,0
"2021-12-07 10:31:02+00",13.6,15.6,,36.7,-599,51,83,1018.54,35.6,0
"2021-12-07 10:36:02+00",12.4,14.4,,36.7,-562,39,31,1018.87,35.6,0
"2021-12-07 10:41:02+00",12.1,14.1,,,-522,-73,15,1019,35.5,0
"2021-12-07 10:46:02+00",11.3,13.3,,36.1,-490,-81,18,1019.11,35.3,0
"2021-12-07 10:51:02+00",12.2,14.2,,35.9,-507,-144,22,1019.27,35,0
"2021-12-07 10:56:02+00",10.3,12.3,,35.9,-427,-183,17,1019.61,34.8,0
"2021-12-07 11:01:02+00",10.2,11.2,,35.8,-416,-126,13,1019.82,34.7,0
"2021-12-07 11:06:02+00",12.2,14.2,,35.7,-542,-51,30,1019.87,34.5,0
"2021-12-07 11:11:02+00",14.7,16.7,,35.6,-673,22,21,1019.75,34.4,0
"2021-12-07 11:16:02+00",14.3,16.3,,36.1,-630,13,22,1020.09,34.7,0
"2021-12-07 11:21:02+00",13.5,15.5,,36.1,-611,33,23,1020.32,34.9,0
"2021-12-07 11:26:02+00",16.4,17.4,,36.2,-742,76,29,1020.12,35.1,0
"2021-12-07 11:31:02+00",16.5,19.5,,36.2,-743,40,43,1020.07,35.4,0
"2021-12-07 11:36:02+00",13.2,16.2,,36.2,-588,43,19,1020.39,35.6,0
"2021-12-07 11:41:02+00",12.2,14.2,,,-542,59,40,1020.45,35.6,0
"2021-12-07 11:46:02+00",15.8,17.8,,,-701,148,44,1020.18,35.6,0
"2021-12-07 11:51:02+00",13.0,15.0,,35.8,-586,126,54,1020.4,35.6,0
"2021-12-07 11:56:02+00",16.6,18.6,,,-743,153,35,1020.59,35.6,0
"2021-12-07 12:01:02+00",16.0,19.0,,35.8,-725,181,59,1020.39,35.7,0
"2021-12-07 12:06:02+00",15.4,18.4,,,-662,204,36,1020.58,35.5,0
"2021-12-07 12:11:02+00",15.9,17.9,,35.8,-704,104,34,1020.48,35.6,0
"2021-12-07 12:16:02+00",16.3,19.3,,35.7,-685,252,57,1020.37,35.7,0
"2021-12-07 12:21:02+00",17.2,20.2,,35.8,-744,231,33,1020.82,35.8,0
"2021-12-07 12:26:02+00",17.9,19.9,,35.8,-788,205,26,1020.87,36.1,0
"2021-12-07 12:31:02+00",16.7,20.7,,35.6,-719,249,31,1020.23,36,0
"2021-12-07 12:36:02+00",16.2,19.2,,35.8,-701,226,35,1020.7,36.3,0
"2021-12-07 12:41:02+00",16.9,18.9,,,-716,267,35,1020.86,36.5,0.3
"2021-12-07 12:46:02+00",15.9,20.9,,,-603,374,64,1020.5,36.7,1.2
"2021-12-07 12:51:02+00",16.8,20.8,,35.9,-664,310,69,1020.71,36.4,0
"2021-12-07 12:56:02+00",16.8,20.8,,36,-671,315,52,1021.07,36.3,0
"2021-12-07 13:01:02+00",19.7,22.7,,36,-848,338,20,1020.99,36.1,0
"2021-12-07 13:06:02+00",19.8,22.8,,,-812,358,25,1020.96,36.1,0
"2021-12-07 13:11:02+00",16.0,18.0,,36.2,-644,311,35,1020.98,36.2,0
"2021-12-07 13:16:02+00",16.5,19.5,,36.3,-652,372,49,1020.93,36.3,0
"2021-12-07 13:21:02+00",15.2,17.2,,36.3,-596,347,33,1021.33,36.4,0.2
"2021-12-07 13:26:02+00",16.0,17.0,,36.2,-617,366,22,1021.46,36.4,0.2
"2021-12-07 13:31:02+00",15.0,18.0,,36.2,-622,272,28,1021.77,36.5,9.7
"2021-12-07 13:36:02+00",18.5,20.5,,36.2,-792,301,43,1021.79,36.7,14
"2021-12-07 13:41:02+00",19.0,22.0,,36.2,-769,364,35,1021.66,36.7,28.8
"2021-12-07 13:46:02+00",21.5,23.5,,36.4,-815,540,57,1021.46,37.1,103.5
"2021-12-07 13:51:02+00",14.6,19.6,,36.7,-586,341,56,1021.74,37.3,4.1
"2021-12-07 13:56:02+00",17.2,19.2,,,-635,439,68,1021.35,37,2.6
"2021-12-07 14:01:02+00",17.7,20.7,,36.4,-674,433,47,1021.71,36.9,26.2
"2021-12-07 14:06:02+00",18.3,22.3,,36.5,-750,385,30,1021.77,37.1,25.2
"2021-12-07 14:11:02+00",18.1,22.1,,36.4,-698,439,42,1021.77,37,11.4
"2021-12-07 14:16:02+00",17.2,20.2,,36.4,-629,437,40,1021.89,36.9,11.1
"2021-12-07 14:21:02+00",17.9,20.9,,,-649,453,43,1021.72,36.9,60
"2021-12-07 14:26:02+00",15.1,18.1,,36.6,-561,376,65,1021.83,37.2,39.9
"2021-12-07 14:31:02+00",19.1,21.1,,36.5,-756,436,46,1021.74,37.2,47.9
"2021-12-07 14:36:02+00",16.1,18.1,,,-648,338,38,1021.96,37.7,140.5
"2021-12-07 14:41:02+00",18.1,21.1,,36.9,-725,391,33,1021.65,38,163.9
"2021-12-07 14:46:02+00",16.1,19.1,,37.2,-601,422,60,1021.52,38.5,130.2
"2021-12-07 14:51:02+00",17.9,20.9,,37.3,-717,381,33,1021.71,38.7,92.6
"2021-12-07 14:56:02+00",15.2,17.2,,37.7,-564,362,93,1021.77,39,166.9
"2021-12-07 15:01:02+00",17.1,20.1,,37.5,-619,447,36,1021.73,39.1,162.6
"2021-12-07 15:06:02+00",19.9,21.9,,37.7,-744,506,69,1021.6,39.3,190.5
"2021-12-07 15:11:02+00",16.7,20.7,,38,-658,383,23,1021.74,39.6,196.5
"2021-12-07 15:16:02+00",16.0,20.0,,38,-589,442,48,1021.72,39.4,108.3
"2021-12-07 15:21:02+00",14.4,17.4,,38.1,-525,368,73,1022.15,39.2,62.5
"2021-12-07 15:26:02+00",17.8,20.8,,,-642,493,49,1021.92,38.9,56.5
"2021-12-07 15:31:02+00",14.7,16.7,,38.4,-586,327,64,1022.36,39,79.5
"2021-12-07 15:36:02+00",17.8,20.8,,,-675,421,37,1022.13,38.9,98
"2021-12-07 15:41:02+00",15.3,17.3,,38.3,-600,287,52,1022.44,39.1,99
"2021-12-07 15:46:02+00",14.9,16.9,,,-527,423,22,1022.02,39.7,231
"2021-12-07 15:51:02+00",15.1,17.1,,38.5,-560,369,8,1021.74,39.9,145
"2021-12-07 15:56:02+00",15.0,17.0,,,-547,404,43,1021.88,40.3,182.4
"2021-12-07 16:01:02+00",13.4,16.4,,38.8,-494,351,32,1021.98,40.5,217.8
"2021-12-07 16:06:02+00",11.6,12.6,,39,-439,294,24,1021.75,40.5,221.1
"2021-12-07 16:11:02+00",13.8,15.8,,,-483,388,43,1021.63,41.1,229
"2021-12-07 16:16:02+00",14.4,16.4,,,-599,297,40,1021.64,41.3,229.7
"2021-12-07 16:21:02+00",14.9,17.9,,39.2,-578,349,20,1021.3,41.3,234.6
"2021-12-07 16:26:02+00",11.3,12.3,,,-442,258,6,1021.3,41.7,233.7
"2021-12-07 16:31:02+00",11.6,12.6,,,-389,347,23,1021.04,41.6,241.3
"2021-12-07 16:36:02+00",9.3,10.3,,,-338,231,58,1021.25,41.7,238
"2021-12-07 16:41:02+00",12.5,14.5,,39.5,-415,362,19,1021.05,41.8,177.5
"2021-12-07 16:46:02+00",12.0,13.0,,39.8,-470,273,18,1021.17,41.9,220.1
"2021-12-07 16:51:02+00",11.1,13.1,,39.8,-364,334,29,1021.26,41.8,181
"2021-12-07 16:56:02+00",10.5,12.5,,40,-338,319,17,1021.48,41.6,175.6
"2021-12-07 17:01:02+00",12.7,14.7,,,-553,199,12,1021.42,41.6,106.6
"2021-12-07 17:06:02+00",10.0,14.0,,40.4,-327,333,58,1021.44,41.8,160.2
"2021-12-07 17:11:02+00",11.3,12.3,,40.3,-457,220,13,1021.27,41.8,133.1
"2021-12-07 17:16:02+00",10.2,12.2,,40.5,-445,151,34,1021.26,42.1,93.2
"2021-12-07 17:21:02+00",8.0,9.0,,40.5,-330,86,90,1021.29,42,87.8
"2021-12-07 17:26:02+00",9.3,10.3,,40.3,-372,181,46,1021.05,42.1,118
"2021-12-07 17:31:02+00",8.7,10.7,,40.4,-385,20,42,1021.2,42.2,95.8
"2021-12-07 17:36:02+00",9.8,10.8,,40.5,-390,195,53,1020.94,42.2,104.5
"2021-12-07 17:41:02+00",11.2,13.2,,,-499,126,39,1021.37,42.2,115.9
"2021-12-07 17:46:02+00",13.2,15.2,,,-541,253,32,1021.03,42.2,88.1
"2021-12-07 17:51:02+00",12.4,14.4,,,-526,224,51,1021.28,42.1,149.3
"2021-12-07 17:56:02+00",12.9,13.9,,40.6,-544,190,13,1021.05,42.2,155.6
"2021-12-07 18:01:02+00",10.7,11.7,,40.7,-470,72,11,1021.15,42.5,99.5
"2021-12-07 18:06:02+00",11.1,13.1,,40.9,-486,132,45,1020.98,42.5,43.4
"2021-12-07 18:11:02+00",10.2,11.2,,40.7,-430,157,20,1021.07,42.6,217.8
"2021-12-07 18:16:02+00",11.4,12.4,,,-485,175,46,1021,42.7,67.4
"2021-12-07 18:21:02+00",11.7,12.7,,40.9,-499,172,16,1021.1,42.8,135.4
"2021-12-07 18:26:02+00",10.8,13.8,,41,-467,174,36,1021.32,43,156.1
"2021-12-07 18:31:02+00",11.3,13.3,,40.9,-491,171,33,1021.26,43,142
"2021-12-07 18:36:02+00",10.9,12.9,,40.9,-434,209,14,1021.27,42.8,47.1
"2021-12-07 18:41:02+00",11.7,13.7,,40.9,-510,196,13,1021.15,42.4,122.3
"2021-12-07 18:46:02+00",12.5,13.5,,40.9,-475,291,17,1021.46,42.2,127.2
"2021-12-07 18:51:02+00",7.8,10.8,,40.9,-290,223,25,1021.15,42.2,85.7
"2021-12-07 18:56:02+00",7.9,9.9,,40.9,-286,185,42,1021.14,42.2,90.6
"2021-12-07 19:01:02+00",9.6,12.6,,,-378,190,65,1021.12,42.3,83.8
"2021-12-07 19:06:02+00",8.8,9.8,,41,-333,212,17,1020.9,42.2,37.3
"2021-12-07 19:11:02+00",9.4,11.4,,,-401,152,25,1020.97,42.2,48.2
"2021-12-07 19:16:02+00",11.2,14.2,,41.2,-493,128,5,1021.01,42.6,173.6
"2021-12-07 19:21:02+00",9.5,11.5,,41.5,-435,10,46,1020.94,43.4,111.9
"2021-12-07 19:26:02+00",7.5,8.5,,,-320,78,-1,1020.91,43.7,55.3
"2021-12-07 19:31:02+00",8.9,9.9,,,-391,42,14,1020.96,44.2,164.1
"2021-12-07 19:36:02+00",8.4,10.4,,41.6,-371,87,17,1020.98,44.8,152.1
"2021-12-07 19:41:02+00",11.9,12.9,,,-516,168,30,1020.93,44.6,66.7
"2021-12-07 19:46:02+00",10.4,12.4,,41.6,-461,44,9,1020.96,44.4,70.8
"2021-12-07 19:51:02+00",8.7,9.7,,41.6,-379,-54,22,1020.81,44.6,116.5
"2021-12-07 19:56:02+00",8.0,9.0,,41.7,-333,-131,40,1020.89,45.1,70
"2021-12-07 20:01:02+00",10.1,12.1,,41.7,-428,-47,34,1020.91,45.1,67
"2021-12-07 20:06:02+00",12.1,14.1,,42,-546,-60,22,1021.14,45.2,82.2
"2021-12-07 20:11:02+00",8.6,10.6,,,-373,-52,17,1021.18,45.3,85.3
"2021-12-07 20:16:02+00",9.7,10.7,,,-433,4,27,1021.14,45.4,66.1
"2021-12-07 20:21:02+00",9.5,11.5,,,-427,-7,31,1021.43,45.1,39
"2021-12-07 20:26:02+00",10.2,11.2,,41.9,-453,57,34,1021.45,44.9,33.9
"2021-12-07 20:31:02+00",9.6,12.6,,41.9,-416,166,31,1021.37,44.1,30.7
"2021-12-07 20:36:02+00",10.0,11.0,,41.8,-435,111,32,1021.46,44,21.3
"2021-12-07 20:41:02+00",10.2,12.2,,,-406,208,42,1021.38,43.8,4.7
"2021-12-07 20:46:02+00",10.2,11.2,,41.8,-400,223,31,1021.49,43,5.2
"2021-12-07 20:51:02+00",9.3,11.3,,,-394,154,12,1021.52,42.7,0
"2021-12-07 20:56:02+00",10.6,13.6,,41.6,-426,222,27,1021.59,42.2,0.2
"2021-12-07 21:01:02+00",11.3,13.3,,41.6,-458,243,16,1021.62,42,0
"2021-12-07 21:06:02+00",10.5,12.5,,41.6,-442,158,19,1021.63,41.6,0
"2021-12-07 21:11:02+00",8.7,10.7,,41.5,-382,51,33,1021.65,41.4,0
"2021-12-07 21:16:02+00",8.2,10.2,,41.4,-353,29,18,1021.57,41.2,0
"2021-12-07 21:21:02+00",7.5,7.5,,41.1,-332,-2,23,1021.33,40.9,0
"2021-12-07 21:26:02+00",9.1,10.1,,41,-411,2,16,1021.53,40.6,0
"2021-12-07 21:31:02+00",9.5,10.5,,40.9,-423,22,19,1021.58,40.2,0
"2021-12-07 21:36:02+00",7.2,8.2,,40.9,-326,19,6,1021.57,39.8,0
"2021-12-07 21:41:02+00",7.1,8.1,,40.7,-312,-8,7,1021.65,39.5,0
"2021-12-07 21:46:02+00",7.4,8.4,,40.9,-331,51,9,1021.54,39.1,0
"2021-12-07 21:51:02+00",6.9,7.9,,,-301,23,8,1021.44,38.9,0
"2021-12-07 21:56:02+00",7.4,8.4,,40.7,-315,-66,2,1021.54,38.5,0
"2021-12-07 22:01:02+00",8.3,9.3,,40.8,-367,-13,13,1021.62,38.2,0
"2021-12-07 22:06:02+00",8.8,9.8,,40.7,-397,-20,13,1021.7,38,0
"2021-12-07 22:11:02+00",6.5,7.5,,40.5,-280,-42,7,1021.59,37.9,0
"2021-12-07 22:16:02+00",6.3,6.3,,40.3,-271,-29,1,1021.62,37.8,0
"2021-12-07 22:21:02+00",7.0,7.0,,40.6,-309,0,13,1021.32,37.6,0
"2021-12-07 22:26:02+00",6.5,7.5,,40.6,-269,-71,11,1021.4,37.6,0
"2021-12-07 22:31:02+00",5.8,6.8,,,-243,-127,5,1021.37,37.6,0
"2021-12-07 22:36:02+00",7.6,8.6,,40.4,-317,-75,4,1021.4,37.5,0
"2021-12-07 22:41:02+00",6.7,7.7,,40.3,-287,-37,9,1021.55,37.4,0
"2021-12-07 22:46:02+00",7.7,8.7,,40.4,-339,-41,9,1021.74,37.5,0
"2021-12-07 22:51:02+00",7.7,7.7,,40.3,-342,4,10,1021.58,37.5,0
"2021-12-07 22:56:02+00",8.0,9.0,,,-356,-5,14,1021.65,37.6,0
"2021-12-07 23:01:02+00",7.1,8.1,,40.1,-309,-29,7,1021.75,37.6,0
"2021-12-07 23:06:02+00",7.1,7.1,,40,-312,-7,8,1021.66,37.6,0
"2021-12-07 23:11:02+00",6.8,7.8,,40,-296,-4,10,1021.6,37.6,0
"2021-12-07 23:16:02+00",6.9,7.9,,39.8,-308,1,8,1021.66,37.5,0
"2021-12-07 23:21:02+00",7.4,8.4,,39.8,-329,-29,10,1021.72,37.5,0
"2021-12-07 23:26:02+00",6.6,7.6,,39.8,-292,-18,6,1021.75,37.5,0
"2021-12-07 23:31:02+00",7.2,7.2,,,-323,-2,9,1021.77,37.5,0
"2021-12-07 23:36:02+00",7.5,8.5,,39.8,-330,-13,10,1021.77,37.5,0
"2021-12-07 23:41:02+00",6.8,7.8,,39.6,-289,-57,6,1021.78,37.5,0
"2021-12-07 23:46:02+00",6.5,7.5,,39.5,-275,-35,3,1021.79,37.4,0
"2021-12-07 23:51:02+00",5.6,6.6,,39.3,-220,-82,3,1021.74,37.3,0
"2021-12-07 23:56:02+00",6.8,7.8,,39.4,-291,-43,9,1021.77,37.1,0
